GFA011 OTHH-OBBI

Flight info

Callsign GFA011
Flight time 0h 20m
Altitude 12000
Route TULUB2A/34L TULUB M444 KINID DCT BHR
Aircraft A320/M-SDE3FGHIRWY/LB1

Departure

Time 2026-05-06 22:20
Airport Hamad International Airport (OTHH)

Arrival

Time 2026-05-06 22:41
Airport Bahrain International Airport (OBBI)
Time Latitude Longitude Altitude Speed Heading
2026-05-06 21:59 25.27052 51.61034 30 ft 0 kts 158°
2026-05-06 22:09 25.27056 51.61033 30 ft 3 kts 158°
2026-05-06 22:10 25.27081 51.61021 30 ft 4 kts 158°
2026-05-06 22:10 25.27106 51.61010 30 ft 4 kts 158°
2026-05-06 22:10 25.27123 51.61002 30 ft 2 kts 158°
2026-05-06 22:10 25.27141 51.60991 30 ft 4 kts 126°
2026-05-06 22:11 25.27147 51.60966 30 ft 4 kts 74°
2026-05-06 22:11 25.27138 51.60940 30 ft 4 kts 68°
2026-05-06 22:11 25.27136 51.60934 30 ft 0 kts 68°
2026-05-06 22:14 25.27137 51.60935 30 ft 1 kts 68°
2026-05-06 22:14 25.27143 51.60951 30 ft 4 kts 68°
2026-05-06 22:14 25.27160 51.60999 30 ft 9 kts 68°
2026-05-06 22:14 25.27193 51.61085 30 ft 15 kts 59°
2026-05-06 22:15 25.27290 51.61123 30 ft 15 kts 42°
2026-05-06 22:15 25.27337 51.61240 30 ft 18 kts 68°
2026-05-06 22:15 25.27388 51.61380 30 ft 21 kts 68°
2026-05-06 22:15 25.27423 51.61515 29 ft 15 kts 104°
2026-05-06 22:16 25.27343 51.61576 29 ft 13 kts 157°
2026-05-06 22:16 25.27253 51.61616 29 ft 16 kts 158°
2026-05-06 22:16 25.27136 51.61667 29 ft 16 kts 159°
2026-05-06 22:16 25.27100 51.61775 28 ft 16 kts 120°
2026-05-06 22:17 25.27018 51.61825 28 ft 15 kts 152°
2026-05-06 22:17 25.26900 51.61878 28 ft 21 kts 158°
2026-05-06 22:17 25.26752 51.61943 28 ft 26 kts 158°
2026-05-06 22:17 25.26570 51.62024 28 ft 31 kts 158°
2026-05-06 22:18 25.26361 51.62117 29 ft 34 kts 158°
2026-05-06 22:18 25.26137 51.62215 30 ft 35 kts 158°
2026-05-06 22:18 25.25905 51.62316 29 ft 37 kts 158°
2026-05-06 22:18 25.25697 51.62409 29 ft 29 kts 158°
2026-05-06 22:19 25.25610 51.62483 28 ft 13 kts 93°
2026-05-06 22:19 25.25629 51.62544 27 ft 7 kts 66°
2026-05-06 22:19 25.25647 51.62591 26 ft 6 kts 66°
2026-05-06 22:19 25.25693 51.62610 26 ft 12 kts 354°
2026-05-06 22:20 25.25925 51.62511 27 ft 71 kts 338°
2026-05-06 22:20 25.26591 51.62217 29 ft 132 kts 338°
2026-05-06 22:20 25.27574 51.61785 308 ft 156 kts 339°
2026-05-06 22:20 25.28563 51.61343 1124 ft 152 kts 339°
2026-05-06 22:21 25.29519 51.60914 1827 ft 149 kts 339°
2026-05-06 22:21 25.30542 51.60466 2148 ft 169 kts 339°
2026-05-06 22:21 25.31709 51.59956 2379 ft 191 kts 338°
2026-05-06 22:21 25.33017 51.59384 2594 ft 215 kts 340°
2026-05-06 22:22 25.34564 51.59153 2895 ft 240 kts
2026-05-06 22:22 25.36280 51.59537 3294 ft 261 kts 14°
2026-05-06 22:22 25.38033 51.60146 3991 ft 268 kts 18°
2026-05-06 22:22 25.39813 51.60808 4763 ft 272 kts 18°
2026-05-06 22:23 25.41624 51.61461 5531 ft 275 kts 17°
2026-05-06 22:23 25.43466 51.62086 6328 ft 278 kts 16°
2026-05-06 22:23 25.45335 51.62687 7072 ft 282 kts 15°
2026-05-06 22:23 25.47230 51.63272 7879 ft 284 kts 14°
2026-05-06 22:24 25.49056 51.63768 8652 ft 286 kts 12°
2026-05-06 22:24 25.51006 51.64245 9440 ft 289 kts 12°
2026-05-06 22:24 25.52966 51.64700 10159 ft 295 kts 12°
2026-05-06 22:24 25.54360 51.65020 10327 ft 311 kts 12°
2026-05-06 22:25 25.56553 51.65509 10655 ft 329 kts
2026-05-06 22:25 25.58860 51.65612 11284 ft 336 kts 356°
2026-05-06 22:25 25.61959 51.65012 11879 ft 348 kts 349°
2026-05-06 22:25 25.64358 51.64441 11972 ft 361 kts 348°
2026-05-06 22:26 25.66890 51.63829 11996 ft 385 kts 348°
2026-05-06 22:26 25.68687 51.63387 11999 ft 395 kts 348°
2026-05-06 22:26 25.71383 51.62720 11999 ft 399 kts 348°
2026-05-06 22:26 25.74031 51.61763 12003 ft 402 kts 338°
2026-05-06 22:27 25.76606 51.60555 12002 ft 402 kts 338°
2026-05-06 22:27 25.79185 51.59347 12004 ft 402 kts 338°
2026-05-06 22:27 25.81764 51.58140 12000 ft 402 kts 338°
2026-05-06 22:27 25.84156 51.56541 12005 ft 404 kts 320°
2026-05-06 22:28 25.86004 51.54242 12002 ft 405 kts 303°
2026-05-06 22:28 25.87382 51.51500 12006 ft 408 kts 299°
2026-05-06 22:28 25.88722 51.48722 12009 ft 408 kts 298°
2026-05-06 22:28 25.90059 51.45942 12015 ft 408 kts 298°
2026-05-06 22:29 25.91398 51.43158 12021 ft 408 kts 298°
2026-05-06 22:29 25.92735 51.40388 12019 ft 408 kts 298°
2026-05-06 22:29 25.94081 51.37611 12016 ft 408 kts 299°
2026-05-06 22:29 25.95430 51.34832 12019 ft 408 kts 298°
2026-05-06 22:30 25.96774 51.32051 12019 ft 409 kts 298°
2026-05-06 22:30 25.98109 51.29275 11691 ft 402 kts 298°
2026-05-06 22:30 25.99385 51.26579 11561 ft 384 kts 297°
2026-05-06 22:30 26.00588 51.24000 11443 ft 367 kts 297°
2026-05-06 22:31 26.01719 51.21557 11313 ft 342 kts 297°
2026-05-06 22:31 26.02772 51.19281 11172 ft 321 kts 297°
2026-05-06 22:31 26.03777 51.17113 10734 ft 312 kts 297°
2026-05-06 22:31 26.04764 51.14993 10230 ft 306 kts 297°
2026-05-06 22:32 26.05743 51.12899 9687 ft 303 kts 297°
2026-05-06 22:32 26.06710 51.10832 9153 ft 301 kts 297°
2026-05-06 22:32 26.07655 51.08800 8820 ft 298 kts 296°
2026-05-06 22:32 26.08486 51.06699 8450 ft 295 kts 292°
2026-05-06 22:33 26.09251 51.04594 8067 ft 289 kts 291°
2026-05-06 22:33 26.09976 51.02528 7474 ft 285 kts 291°
2026-05-06 22:33 26.10687 51.00483 6861 ft 281 kts 291°
2026-05-06 22:33 26.11390 50.98460 6256 ft 278 kts 291°
2026-05-06 22:34 26.12084 50.96481 5638 ft 273 kts 291°
2026-05-06 22:34 26.12767 50.94532 5064 ft 267 kts 291°
2026-05-06 22:34 26.13439 50.92625 4453 ft 262 kts 292°
2026-05-06 22:34 26.14104 50.90748 3782 ft 260 kts 293°
2026-05-06 22:35 26.14748 50.88926 3528 ft 243 kts 292°
2026-05-06 22:35 26.15335 50.87245 3389 ft 222 kts 293°
2026-05-06 22:35 26.15874 50.85704 3295 ft 205 kts 293°
2026-05-06 22:35 26.16372 50.84288 3209 ft 189 kts 293°
2026-05-06 22:36 26.16842 50.82962 3132 ft 184 kts 294°
2026-05-06 22:36 26.17311 50.81639 3046 ft 185 kts 293°
2026-05-06 22:36 26.17784 50.80302 2962 ft 186 kts 293°
2026-05-06 22:36 26.18266 50.78959 2844 ft 189 kts 296°
2026-05-06 22:37 26.18873 50.77658 2582 ft 190 kts 302°
2026-05-06 22:37 26.19558 50.76405 2352 ft 189 kts 304°
2026-05-06 22:37 26.20263 50.75168 2102 ft 190 kts 306°
2026-05-06 22:37 26.20973 50.73936 1857 ft 185 kts 306°
2026-05-06 22:38 26.21643 50.72775 1647 ft 170 kts 307°
2026-05-06 22:38 26.22255 50.71715 1427 ft 154 kts 306°
2026-05-06 22:38 26.22805 50.70764 1253 ft 140 kts 306°
2026-05-06 22:38 26.23326 50.69865 1059 ft 137 kts 307°
2026-05-06 22:39 26.23837 50.68983 890 ft 134 kts 307°
2026-05-06 22:39 26.24341 50.68110 765 ft 132 kts 308°
2026-05-06 22:39 26.24836 50.67257 571 ft 131 kts 304°
2026-05-06 22:39 26.25328 50.66410 381 ft 133 kts 308°
2026-05-06 22:40 26.25833 50.65535 205 ft 134 kts 304°
2026-05-06 22:40 26.26325 50.64677 41 ft 130 kts 305°
2026-05-06 22:40 26.26762 50.63924 17 ft 95 kts 303°
2026-05-06 22:40 26.27042 50.63436 15 ft 64 kts 302°
2026-05-06 22:41 26.27255 50.62930 17 ft 12 kts 272°
2026-05-06 22:41 26.27241 50.62844 19 ft 11 kts 218°
2026-05-06 22:41 26.27190 50.62846 20 ft 5 kts 136°
2026-05-06 22:42 26.27172 50.62869 21 ft 3 kts 120°
2026-05-06 22:42 26.27164 50.62883 22 ft 2 kts 120°
2026-05-06 22:42 26.27152 50.62903 23 ft 8 kts 135°
2026-05-06 22:42 26.27076 50.62882 24 ft 18 kts 218°
2026-05-06 22:43 26.27090 50.62794 21 ft 11 kts 302°
2026-05-06 22:43 26.27051 50.62735 20 ft 8 kts 212°
2026-05-06 22:43 26.27022 50.62714 22 ft 4 kts 212°
2026-05-06 22:43 26.27018 50.62712 22 ft 0 kts 212°